ZHANGZHENG-1 (CSES)

Last updated on Wed Apr 24 2024 00:03:21 GMT+0000 (Coordinated Universal Time)

1 43194U 18015C 24114.60106305 .00020322 00000+0 91200-3 0 9992 2 43194 97.6022 257.8106 0008908 316.2910 43.7619 15.21187002345396

Satellite not in orbit

ZHANGZHENG-1 (CSES)